Temp
23 24 26 27 31 34 29 30 33 31 30 30 28 29 27 26 29 28 25 24 24 23 22 22 21 22 22 21 22 22 22 22 22 23 22 23 22 22 22 21 22 22 22 22 21 21 22 21 21
27 27 28 33 35 33 33 33 33 32 31 31 29 28 30 27 27 26 26 24 24 25 24 23 21 22 22 22 22 22 22 22 22 23 23 23 22 23 22 22 22 22 22 21 21 22 21 21 21
29 29 34 35 36 34 33 33 32 32 32 32 30 31 30 27 28 28 26 25 26 25 25 22 22 22 22 22 22 21 21 22 22 22 23 22 22 22 22 22 21 22 21 22 22 22 22 21 21
31 33 35 35 34 34 34 33 33 32 32 32 31 29 29 29 28 28 25 25 26 24 24 22 22 22 22 22 22 22 22 22 22 22 22 22 22 22 22 22 22 22 22 22 22 22 21 21 21
32 36 36 36 34 34 34 34 34 33 32 32 32 30 28 28 27 26 26 26 26 26 25 23 22 22 22 22 22 22 21 21 22 22 23 22 22 22 23 22 22 21 22 22 22 22 21 21 22
36 36 37 36 34 34 34 34 34 33 32 31 32 30 29 27 27 27 26 26 26 26 25 24 22 22 22 22 22 22 21 22 22 22 22 22 22 23 22 23 22 21 21 22 22 22 22 22 22
37 37 36 36 35 34 34 35 34 33 32 32 32 30 29 28 27 27 26 27 26 26 25 25 24 22 21 21 21 21 21 22 22 22 23 23 23 23 23 23 23 22 22 22 22 22 22 22 23
37 38 36 36 36 35 35 34 34 34 32 33 33 30 28 29 27 27 27 27 26 26 26 25 24 23 24 23 21 21 22 22 22 23 23 23 23 23 24 24 23 23 23 22 23 23 23 23 23
36 37 37 37 36 35 35 34 34 34 32 32 32 33 31 28 27 27 27 26 26 26 26 25 25 24 24 24 23 22 22 22 22 23 23 24 25 25 25 23 23 23 23 23 23 23 23 23 23
37 37 37 38 38 36 35 35 34 33 32 32 31 32 29 28 27 28 28 27 27 26 26 26 26 24 25 25 24 24 24 24 24 24 24 24 25 24 24 24 23 23 23 23 23 23 23 24 26
38 37 38 38 38 38 36 35 35 34 33 33 32 31 30 28 28 28 28 28 28 27 27 25 26 24 25 25 25 25 25 25 24 24 24 25 24 25 25 25 25 25 24 26 25 25 25 24 24
37 38 38 39 37 38 36 37 34 34 35 35 34 31 30 30 29 29 29 28 28 27 27 26 25 25 25 24 25 25 26 25 25 25 23 24 24 25 24 25 25 24 25 24 24 25 23 23 23
37 38 39 39 38 38 38 36 35 34 34 35 33 31 31 30 29 29 29 28 28 27 27 26 26 24 24 24 25 25 25 25 26 25 24 24 25 24 24 23 23 23 24 25 24 24 24 23 24
39 38 39 39 38 38 36 36 35 35 35 34 32 31 31 31 30 29 29 28 28 27 27 26 25 24 24 24 24 24 24 25 25 25 25 23 24 24 24 24 24 24 24 24 24 23 23 23 24
38 37 37 37 38 36 37 34 34 35 34 33 32 32 32 31 30 29 29 28 27 27 27 27 26 25 24 24 24 24 25 25 26 25 24 24 23 23 23 24 24 24 23 22 23 23 23 24 24
37 38 37 37 37 36 36 36 35 35 34 33 33 32 31 31 31 29 29 28 28 27 26 26 26 26 25 25 24 25 25 25 25 26 25 23 23 23 23 24 24 24 23 23 24 24 24 25 24
38 37 38 36 37 35 36 37 36 35 35 34 33 32 32 31 31 29 29 28 28 27 26 26 25 26 25 24 24 24 25 24 24 24 24 24 23 23 23 24 24 23 23 21 22 24 23 24 24
37 37 38 38 36 36 36 37 35 35 35 35 33 33 32 32 31 30 29 29 28 27 26 26 25 25 25 24 23 24 24 24 25 25 24 23 23 23 22 23 23 22 22 23 23 22 23 23 23
39 38 38 39 38 37 37 37 37 34 35 35 34 33 33 33 32 31 29 29 28 28 27 26 25 25 24 24 25 25 26 26 25 25 24 23 23 23 23 24 23 22 23 23 22 23 23 23 24
38 38 38 39 38 37 38 37 37 36 35 35 35 34 34 34 33 31 30 30 29 28 27 26 26 25 24 25 25 26 26 27 26 26 24 24 24 23 23 23 23 23 24 22 22 22 23 24 23
38 38 38 38 37 37 38 36 37 38 36 35 36 36 35 34 34 32 31 30 30 29 27 27 26 25 24 25 25 24 25 25 25 26 25 24 23 23 22 22 23 22 22 24 22 22 22 24 23
37 39 39 38 37 36 37 36 38 39 36 35 35 35 35 35 34 33 32 31 30 29 28 27 26 25 25 24 26 25 26 27 28 27 27 26 24 24 23 22 22 22 23 22 22 22 22 21 24
37 39 38 38 37 37 37 36 38 38 37 37 36 36 36 36 35 34 33 31 30 30 29 28 26 25 25 25 25 26 25 27 27 27 25 24 24 23 23 22 22 22 22 22 21 21 21 22 22
38 38 38 38 37 36 37 37 37 38 37 39 39 38 36 36 35 34 33 32 31 30 29 28 27 25 25 25 25 25 26 26 27 26 26 25 25 24 23 22 22 22 22 21 21 21 20 21 21
37 36 34 34 35 35 38 37 37 39 40 40 41 40 37 37 36 35 33 33 31 30 30 29 27 26 26 25 25 25 25 25 26 26 26 26 26 26 24 22 22 22 21 21 21 20 21 21 21
36 37 36 33 35 36 37 35 38 39 40 41 41 40 39 37 37 36 34 33 31 31 30 29 28 26 26 26 25 25 25 25 26 26 27 26 26 26 25 22 22 22 22 21 21 21 21 21 21
36 36 38 37 38 37 38 37 38 39 39 40 40 39 39 38 37 36 35 33 32 31 30 29 28 27 27 26 25 25 25 25 26 26 25 25 25 26 24 22 22 22 22 21 21 21 21 21 21
37 38 36 37 34 34 36 37 37 38 39 40 40 39 39 38 38 38 36 34 33 32 31 29 29 28 27 27 26 25 25 25 25 26 25 25 25 24 23 22 22 22 21 21 20 22 21 21 21
35 36 36 37 37 35 35 36 39 38 39 39 41 40 40 39 38 37 37 35 33 33 32 31 29 28 28 27 27 26 26 26 25 25 24 24 23 22 22 22 22 22 21 21 20 21 22 21 21
37 36 36 35 34 36 37 37 41 40 40 40 41 42 42 40 39 37 37 36 35 33 33 32 31 30 29 29 27 27 26 26 25 24 24 22 22 22 21 21 21 21 22 21 21 21 22 21 21
Height
770 773 774 771 771 755 791 791 766 776 781 777 781 783 790 794 789 808 808 813 816 818 821 825 826 827 829 831 832 833 835 837 839 840 842 844 845 847 848 848 850 849 850 850 850 850 849 850 849
769 771 770 751 760 777 780 766 773 771 774 773 780 784 783 800 794 802 808 815 817 819 823 827 828 830 831 833 834 836 838 840 841 843 844 847 848 849 850 851 851 852 852 852 852 851 851 851 850
767 766 755 753 759 774 782 768 773 773 771 773 780 778 782 798 797 799 810 815 818 821 824 828 829 831 833 835 837 838 840 842 844 846 847 849 850 851 852 853 854 853 854 853 853 852 852 851 851
763 760 749 763 774 771 770 767 769 774 773 773 776 791 791 795 799 804 812 816 819 824 827 829 832 834 835 837 839 841 843 845 846 848 849 850 851 852 853 854 855 855 854 854 853 853 853 851 851
759 749 756 767 774 767 762 764 765 771 774 777 774 791 798 801 805 809 814 817 819 824 828 832 835 836 838 839 841 843 845 846 848 849 850 851 852 853 854 854 856 856 855 855 854 854 853 852 851
751 745 757 773 776 768 764 764 767 771 775 779 781 791 798 804 807 811 815 818 821 824 829 833 836 838 840 840 843 845 847 848 849 850 852 853 854 855 856 857 858 857 856 856 855 854 853 852 850
748 749 766 761 774 774 769 760 767 772 779 782 778 792 798 804 808 812 816 819 822 826 830 834 837 839 841 842 844 847 848 849 851 852 853 854 856 856 857 858 857 856 856 855 855 854 853 851 850
744 745 763 759 764 772 762 763 763 769 779 774 776 795 801 801 808 812 816 820 824 827 831 834 838 840 842 844 846 848 849 851 852 853 854 855 856 857 857 857 856 856 856 855 854 853 852 852 850
744 753 762 759 759 763 757 765 763 765 777 779 780 781 790 802 808 812 817 822 825 828 831 834 837 840 843 845 847 849 850 851 853 854 854 856 856 857 857 857 856 855 854 854 853 853 852 851 850
749 750 752 742 742 753 758 759 766 773 778 781 785 785 794 803 807 810 814 819 823 828 831 833 836 839 842 844 847 849 851 852 853 854 855 856 856 857 857 856 855 854 853 854 854 853 852 851 851
740 752 739 740 738 737 754 760 758 767 779 774 783 787 795 801 806 809 813 817 820 826 829 833 836 839 841 843 846 848 849 850 852 854 855 855 856 856 855 854 854 854 853 852 853 852 852 852 851
751 736 736 733 738 740 751 749 764 764 764 765 773 784 792 799 803 807 811 815 819 824 828 832 835 839 841 842 845 847 848 849 851 852 854 855 855 855 855 854 854 853 853 853 853 852 853 852 850
745 736 731 729 735 737 740 753 758 764 763 764 773 784 790 796 801 806 810 814 819 823 827 830 834 837 839 842 843 845 847 848 848 850 852 853 853 853 854 854 854 853 853 852 853 853 852 851 850
727 732 732 728 732 738 748 752 756 758 759 766 775 781 787 792 797 803 808 812 817 821 825 828 832 835 838 840 842 844 845 846 847 848 850 851 852 852 853 854 853 853 852 852 852 851 851 850 848
729 745 739 734 734 744 741 765 764 752 759 768 774 778 783 789 794 799 804 809 814 818 822 825 829 832 835 837 840 842 843 844 845 846 848 849 850 851 852 851 852 852 852 851 850 850 849 848 847
740 736 749 737 738 741 746 758 752 750 759 767 770 775 781 785 790 796 800 805 809 814 818 823 825 828 831 834 837 838 840 841 843 844 845 847 849 849 850 850 850 850 850 849 848 848 847 846 846
736 751 744 748 736 746 751 752 745 747 754 762 768 772 777 782 787 791 796 801 805 810 814 819 822 825 828 831 834 836 838 840 841 843 844 844 846 847 848 848 849 849 848 848 848 846 847 845 844
746 747 734 742 742 742 751 747 749 748 750 755 763 768 773 775 779 786 791 796 801 806 811 815 819 822 825 828 831 833 836 838 839 839 840 841 843 845 845 846 846 847 847 846 846 847 846 846 844
721 730 736 725 723 741 742 744 741 749 749 751 756 762 765 768 772 780 787 792 797 801 806 811 814 818 822 825 827 829 831 833 835 836 838 840 841 841 842 842 844 844 844 844 845 846 844 843 843
721 730 732 719 724 735 733 742 735 736 746 745 749 753 758 761 766 774 780 785 789 795 801 806 809 814 817 820 823 824 827 828 831 832 835 837 838 839 839 840 841 842 842 844 845 845 843 842 842
724 728 727 728 731 729 732 745 737 728 734 739 739 741 746 752 758 765 772 777 783 788 794 799 804 808 812 816 819 823 825 827 829 830 832 833 835 836 837 838 840 841 842 841 843 843 844 840 841
731 709 716 723 736 757 731 761 731 721 733 734 737 737 739 743 749 756 764 770 775 781 787 793 798 803 808 811 814 817 818 819 821 824 826 828 831 833 835 837 838 839 840 841 841 842 842 842 840
721 702 716 720 730 736 734 753 730 719 729 725 723 725 727 732 739 747 755 763 768 775 780 786 792 797 802 806 809 812 816 816 818 820 823 826 828 831 833 834 835 837 838 839 840 841 842 842 842
704 713 713 717 726 750 729 740 736 722 722 710 706 712 717 723 730 740 747 755 761 767 773 779 785 790 795 800 804 807 810 813 813 817 820 823 824 827 830 831 832 834 835 838 838 839 841 842 843
710 723 752 759 751 751 716 732 728 702 696 698 694 695 706 713 722 730 738 745 752 759 765 771 777 782 788 793 797 802 805 809 812 814 817 819 821 823 826 830 832 834 836 837 838 839 840 842 842
710 712 731 762 751 742 717 737 719 695 689 685 681 686 692 702 708 717 726 735 743 750 757 763 769 774 780 785 790 795 799 804 807 810 812 815 817 820 824 829 831 832 833 834 835 837 839 840 842
701 711 694 715 708 724 712 713 699 689 692 686 684 685 686 691 696 705 716 724 733 741 748 754 761 767 773 779 784 788 793 797 801 806 810 813 816 818 822 824 829 831 833 834 835 834 835 836 838
681 684 720 703 736 742 723 716 715 701 693 682 679 681 679 682 688 693 703 712 722 732 739 746 753 760 767 772 776 781 786 792 797 800 802 805 810 817 821 823 824 825 830 834 834 832 832 833 833
691 691 691 692 701 725 733 714 678 689 685 683 671 669 669 673 679 684 690 701 714 723 730 737 745 753 758 764 768 773 779 785 789 793 800 807 808 814 819 823 824 824 823 830 833 831 830 829 831
667 682 683 702 714 697 703 700 657 663 669 668 664 657 654 661 668 677 683 694 703 711 720 727 735 743 749 753 759 767 773 777 781 786 790 790 804 802 808 817 823 825 823 825 829 828 825 825 826
Wind_Speed
14 13 8 10 6 4 12 7 9 8 8 11 7 5 9 9 3 7 17 16 19 16 17 17 16 14 17 16 16 17 20 18 17 17 14 13 12 12 12 11 10 11 11 11 10 11 12 12 11
13 11 7 6 3 5 8 7 10 11 13 14 12 7 5 6 8 19 19 19 18 19 20 18 14 13 15 15 15 16 17 15 15 13 13 11 8 8 9 9 9 8 9 8 8 10 10 10 9
12 10 6 4 4 9 11 8 11 12 10 4 5 9 5 11 16 17 24 22 19 18 18 14 14 13 13 13 13 15 15 14 14 13 11 8 6 6 7 7 8 8 7 7 8 8 8 8 9
9 7 5 4 12 7 11 10 13 11 8 3 9 12 11 17 12 17 22 20 19 18 15 13 13 12 13 13 14 16 14 13 13 13 10 8 6 6 5 6 7 6 5 5 6 6 7 7 7
8 4 3 9 12 10 10 12 9 6 7 8 11 12 13 8 13 22 20 19 18 18 15 13 14 13 14 15 17 17 15 13 13 12 11 9 7 4 5 5 4 4 4 4 5 6 7 7 7
7 4 4 10 12 9 8 10 6 5 8 8 14 16 11 14 19 20 19 17 18 18 16 14 13 14 15 16 18 19 14 12 11 11 10 7 5 2 3 2 4 3 3 5 6 7 7 7 6
7 5 5 9 10 9 9 9 4 8 10 9 17 14 12 16 19 19 19 18 18 17 15 14 13 12 14 15 17 17 13 10 10 9 8 6 4 2 1 1 2 3 4 5 5 5 6 7 6
5 5 4 2 6 12 11 10 7 8 8 14 9 6 14 21 22 21 20 18 17 17 16 14 13 14 14 13 14 13 12 11 9 8 7 6 4 2 2 2 4 5 3 4 4 4 4 5 6
4 6 4 6 4 11 14 10 7 7 12 7 9 7 22 26 24 23 21 18 17 16 15 15 15 14 15 14 12 11 11 10 10 8 7 4 3 2 2 4 5 5 2 3 4 3 4 4 6
8 7 5 4 1 13 15 11 13 9 12 9 10 9 27 26 25 24 23 21 20 18 16 16 15 15 14 13 12 11 11 11 10 9 6 4 3 3 3 4 5 3 1 3 3 5 5 6 5
7 11 6 2 1 11 18 12 12 10 12 12 15 17 25 27 25 23 22 21 21 19 18 16 16 14 14 13 12 12 12 11 12 10 8 6 5 3 3 2 1 0 3 1 2 3 3 5 6
10 10 10 7 7 10 17 16 11 10 4 13 14 20 25 23 23 23 22 21 20 20 18 18 17 15 15 12 13 12 12 12 11 10 9 9 7 5 3 3 2 1 2 2 3 4 4 5 7
12 12 9 10 8 11 14 15 10 12 9 12 16 21 24 21 24 24 23 21 20 20 19 19 18 16 16 14 13 12 12 12 11 10 10 10 9 7 5 4 4 4 4 3 5 6 6 7 7
4 7 9 10 9 11 13 11 11 13 13 12 18 22 22 22 25 23 23 22 21 20 20 19 19 18 17 16 14 14 12 12 12 12 11 12 10 8 7 6 6 6 6 4 4 6 7 8 8
8 11 5 9 12 9 13 11 14 12 13 13 18 19 21 21 25 25 24 23 22 21 21 21 19 19 19 17 16 15 13 13 13 13 12 12 10 9 8 8 7 7 5 5 6 6 6 8 9
14 13 12 10 15 9 15 12 16 15 16 15 17 18 20 21 24 25 25 25 24 22 22 22 21 20 20 18 17 16 15 15 14 13 12 11 10 9 10 8 9 8 8 9 8 7 8 9 9
15 14 13 11 14 7 16 6 15 15 16 15 15 18 19 19 22 25 25 25 24 23 22 23 23 22 21 20 18 17 15 15 11 12 13 13 12 11 10 10 9 9 10 8 8 7 7 9 9
18 17 11 13 15 12 17 9 6 13 16 16 17 17 19 20 22 26 25 24 24 23 22 22 23 22 21 19 18 17 15 14 14 13 12 11 10 10 9 9 9 8 8 7 6 6 8 8 8
18 15 13 15 14 17 15 13 11 10 14 16 17 18 19 20 21 25 26 25 24 23 23 22 23 22 20 18 18 18 17 15 14 14 11 10 10 9 8 8 8 7 7 5 5 8 7 8 4
21 18 17 14 9 15 12 14 12 13 16 17 19 19 19 19 19 23 26 27 27 26 24 23 23 24 22 20 19 16 14 15 14 14 11 12 12 11 10 9 7 4 5 5 5 5 7 4 3
23 21 18 16 11 15 11 14 14 15 15 16 17 20 21 20 21 21 26 28 28 27 27 25 25 24 23 23 18 14 13 12 10 13 12 10 10 10 8 6 5 4 5 4 3 3 4 6 1
24 23 18 14 12 13 16 12 14 15 15 17 20 21 21 22 21 20 24 28 29 29 27 26 25 24 24 22 22 20 16 15 14 12 10 9 9 9 8 7 6 4 4 4 3 3 3 4 3
24 22 19 18 15 18 15 11 13 6 14 19 23 24 24 23 22 22 22 29 30 28 27 27 26 24 24 23 23 20 20 16 14 12 9 9 9 11 11 11 8 5 6 6 3 3 3 3 5
20 18 13 17 15 18 23 15 15 12 14 16 17 22 24 24 23 22 27 29 30 30 29 27 26 26 24 25 24 23 19 18 15 14 12 13 14 13 14 13 10 8 7 7 5 5 5 4 5
22 18 11 15 15 15 19 19 16 11 12 15 16 17 22 23 22 22 23 25 30 32 31 29 27 27 26 26 26 24 24 22 20 16 16 13 13 13 14 14 11 9 8 7 6 6 5 4 5
28 26 16 24 15 14 21 17 18 18 18 21 14 14 19 24 24 25 25 29 32 33 33 31 29 28 27 27 27 26 25 24 22 20 18 16 14 13 11 13 11 10 10 9 9 8 8 7 7
29 26 26 25 20 16 17 14 22 16 15 16 14 13 17 22 26 26 25 32 32 33 33 33 30 29 28 27 26 27 25 25 22 19 18 16 14 12 12 14 12 10 11 11 11 11 9 8 8
29 22 24 21 26 24 20 19 12 18 18 17 14 15 17 20 22 25 25 32 35 35 35 34 33 31 27 28 27 27 26 24 23 22 22 22 17 13 12 14 13 13 11 12 13 12 11 11 10
21 24 21 23 23 20 18 19 17 16 15 16 14 14 16 18 21 23 25 33 34 34 34 34 31 30 30 29 30 28 26 25 25 26 24 18 14 12 13 12 13 13 12 14 16 14 12 11 11
26 26 26 18 27 21 23 20 16 14 18 22 21 16 11 13 18 21 22 27 33 35 34 34 33 31 31 33 30 28 26 26 28 26 26 25 20 18 18 10 11 13 12 15 18 17 14 13 14
Wind_Direction
159 161 180 211 237 126 136 175 117 129 114 70 61 80 76 27 22 76 136 129 132 131 141 142 135 123 127 126 127 140 147 137 139 139 133 122 105 90 85 84 81 78 74 67 63 54 47 42 38
166 174 227 273 261 109 83 115 94 81 108 119 93 135 100 79 61 118 129 134 132 131 138 143 139 130 133 131 127 137 145 143 143 148 141 131 112 93 86 83 81 82 73 67 56 46 38 33 24
176 206 266 298 26 53 102 107 102 115 130 102 110 62 76 103 126 131 131 139 136 134 138 145 144 140 143 140 134 133 141 143 151 157 150 132 116 97 85 76 77 72 66 56 47 37 27 21 14
186 196 227 53 81 77 102 117 125 130 125 86 108 91 85 116 113 129 138 143 141 142 141 153 149 148 149 148 145 137 138 144 152 160 156 147 133 116 93 87 80 72 53 42 35 24 10 3 8
233 249 151 82 78 88 108 126 146 121 121 130 125 115 116 118 123 135 142 149 148 148 145 152 150 150 154 157 152 149 145 144 148 158 159 154 140 120 96 80 71 58 48 37 17 7 359 353 357
225 252 124 84 97 106 119 148 143 100 121 123 128 123 120 132 143 146 149 152 150 148 148 149 150 146 149 154 158 163 156 148 152 155 157 156 148 118 101 70 34 37 29 9 2 355 358 -0 7
283 250 59 96 110 137 139 156 168 132 146 143 139 130 127 150 147 149 151 152 149 148 148 150 153 156 152 156 165 173 172 161 157 158 163 158 148 113 89 2 15 12 9 359 0 348 5 6 18
285 272 156 212 143 115 147 166 125 144 116 134 145 160 158 152 151 149 150 151 154 155 153 154 160 158 156 157 162 169 174 171 166 161 153 160 164 186 251 338 342 352 6 15 5 10 27 11 16
260 249 140 90 255 126 151 152 154 106 139 173 159 151 144 151 154 154 153 159 158 162 162 161 160 159 157 162 170 174 181 180 173 164 174 155 201 225 300 288 307 309 327 25 27 12 13 20 29
237 274 84 42 120 148 162 166 157 169 159 172 157 129 147 157 162 164 166 167 168 167 170 169 167 165 162 168 174 177 182 181 182 186 192 206 223 243 274 286 328 341 267 22 17 10 32 16 4
212 263 88 214 215 163 166 175 168 171 178 178 172 155 157 164 171 173 174 174 174 172 173 173 175 173 175 174 180 186 192 195 203 207 212 224 235 245 276 268 321 345 353 242 2 355 350 349 345
254 243 275 284 168 186 171 159 182 175 120 168 167 164 164 172 176 179 180 179 177 176 180 180 180 183 188 183 189 194 199 204 209 215 219 224 231 233 255 276 269 290 309 316 306 321 328 332 333
242 266 269 264 208 194 176 174 161 178 134 156 161 167 173 177 180 184 186 183 182 182 185 187 188 192 194 196 197 202 206 207 212 216 219 223 233 235 252 270 277 288 284 291 308 316 316 319 319
290 260 273 260 193 179 186 172 170 177 161 166 168 175 180 183 184 185 189 188 190 189 191 193 198 200 203 206 208 211 215 219 221 223 225 230 235 250 259 268 266 275 275 286 294 301 309 312 317
232 243 229 232 168 170 197 176 208 145 164 166 179 182 183 189 188 190 190 193 195 197 197 198 200 202 208 208 212 215 219 221 223 226 228 231 235 246 256 264 263 264 268 275 280 294 302 315 320
221 231 223 159 172 162 196 191 195 159 173 176 181 182 187 192 193 194 195 197 197 200 201 203 203 204 209 211 212 215 218 220 224 227 229 233 234 244 255 257 257 261 264 265 277 300 310 308 317
209 229 216 154 192 160 202 239 160 177 188 181 185 185 189 193 198 197 199 199 199 200 202 205 207 208 209 211 214 217 221 227 231 231 233 237 240 245 247 254 255 253 264 273 286 300 308 311 309
209 224 192 194 190 192 200 216 139 185 200 194 188 191 194 197 201 198 200 198 200 199 201 205 208 210 210 211 211 219 226 232 236 237 234 234 227 231 229 247 258 258 253 275 295 304 305 300 310
224 208 215 213 157 202 213 219 186 190 208 209 197 198 200 205 196 197 199 199 199 201 203 205 207 209 209 211 211 213 223 228 233 240 242 235 233 239 247 255 253 247 274 288 290 289 279 300 320
238 224 218 190 172 217 216 231 226 196 211 210 206 204 208 207 195 198 199 201 202 202 205 206 211 212 211 213 214 224 223 228 221 235 236 237 237 233 229 241 244 236 274 277 283 278 297 286 322
224 229 216 215 183 227 249 232 232 212 208 212 215 211 210 209 203 198 201 201 202 203 205 208 211 213 213 217 215 219 227 236 230 233 234 232 226 229 232 216 221 229 275 252 227 247 277 291 241
225 223 233 221 204 223 206 244 222 215 207 213 211 212 214 209 207 203 203 205 205 206 207 210 212 214 216 212 217 213 221 224 225 228 230 233 229 228 213 202 204 224 240 204 213 249 263 255 278
232 226 219 244 217 239 182 239 255 182 224 217 218 212 212 210 208 206 202 205 208 206 206 209 211 213 214 212 217 215 223 225 228 221 222 225 218 210 208 203 195 208 214 206 233 231 235 244 283
226 249 232 233 233 230 231 211 232 210 230 240 223 214 210 208 206 206 206 204 207 205 206 208 210 212 211 210 212 215 219 224 220 211 216 219 213 212 211 206 200 203 203 215 230 224 224 249 270
216 213 207 218 226 238 209 231 229 247 217 242 263 207 210 206 202 201 203 202 203 204 204 206 207 211 209 209 212 213 216 216 221 223 219 225 219 217 209 210 204 213 215 217 226 218 217 230 250
213 215 223 219 221 219 231 234 231 234 261 261 257 253 194 204 202 202 200 202 202 202 203 206 206 209 208 209 211 213 215 218 221 221 226 217 222 218 216 213 213 219 216 217 206 207 225 229 237
204 220 227 242 228 244 225 211 240 245 248 250 249 221 205 205 206 199 199 202 201 202 202 204 207 209 208 209 210 213 213 216 217 221 215 218 222 220 211 201 211 222 222 220 210 216 218 228 234
228 211 221 230 237 228 233 240 218 217 228 244 222 223 214 205 207 204 200 199 199 201 203 206 209 210 209 209 211 213 212 211 211 212 211 211 212 214 208 204 204 198 217 229 220 229 228 230 236
210 224 219 234 228 242 239 234 227 234 253 268 268 219 224 206 204 206 203 203 198 201 203 205 207 209 208 207 210 211 211 208 209 211 212 214 196 195 203 213 212 209 203 229 233 238 243 235 241
225 213 217 221 225 237 246 245 222 234 228 241 245 260 227 215 206 205 205 200 197 202 202 205 206 207 208 209 207 210 209 208 210 208 204 197 200 173 183 188 227 238 231 232 237 238 238 235 239